JY1SAT (JO-97) (43803 NORAD) Tracking and Keplerian Element Data

This shows tracking and keplerian element data for the satellite.

Feedback or suggestion? Click here.




ElementValue
Catalog43803
NameJY1SAT (JO-97)
Epoch Orbit21652
Epoch Day325.1627834
Epoch Year2022
RAAN28.1787
Inclination97.6028
Eccentricity0.0015299
Argument of Perigee100.191
Mean Anonmoly260.1039
Mean Motion14.98027067
Decay Rate2.167E-05
L11 43803U 18099AX 22325.16278340 .00002167 00000+0 18785-3 0 9997
L22 43803 97.6028 28.1787 0015299 100.1910 260.1039 14.98027067216524



Live tracking and technical data element details for JY1SAT (JO-97) (NORAD 43803). JY1SAT (JO-97) can be tracked NOW for your location showing map with azimuth and elevation plus other details from your city location.







IsCatalogInMostPopularTable: catalog: 43803, numindb: 392
Update: records affected: 1



GetName: 43803 JY1SAT (JO-97)

Hit Count: updated at: Fri, 02 Dec 2022 13:17:15 GMT